This demonstration page uses our WeatherBlox Daily Observations layout. Learn more.

41.55636, -103.73856

Hourly Observations for September 1, 2019

Temp ( °F °C ) Dew Point ( °F °C ) Humidity (%) Winds ( mph kmh ) Pressure ( in mb ) Visibility ( mi km ) Precip ( " mm )
12:58 am 00:58 Clear 75 23.8 59 15.2 59 59 SE 10 17 30.03 1017 10 16.0934 0 0
1:58 am 01:58 Clear 69 20.8 59 14.8 69 69 SE 13 20 30.05 1018 10 16.0934 0 0
2:58 am 02:58 Clear 66 18.7 60 15.3 81 81 ESE 7 11 30.06 1018 10 16.0934 0 0
3:58 am 03:58 Clear 66 19.1 61 16.2 83 83 SE 10 17 30.06 1018 10 16.0934 0 0
4:58 am 04:58 Clear 66 18.9 61 16.2 84 84 E 3 6 30.06 1018 10 16.0934 0 0
5:58 am 05:58 Clear 67 19.4 61 16 81 81 S 17 28 30.04 1017 10 16.0934 0 0
6:58 am 06:58 Clear 65 18.6 60 15.7 83 83 S 18 30 30.01 1016 10 16.0934 0 0
7:58 am 07:58 Clear 65 18.4 60 15.5 83 83 S 17 28 30 1016 10 16.0934 0 0
8:58 am 08:58 Clear 66 19.1 59 15.1 78 78 S 26 43 29.95 1014 10 16.0934 0 0
9:58 am 09:58 Clear 68 20 58 14.6 71 71 SSW 25 41 29.93 1014 10 16.0934 0 0
10:58 am 10:58 Clear 66 18.7 58 14.4 76 76 Calm 29.97 1015 10 16.0934 0 0
11:58 am 11:58 Mostly Cloudy 64 17.5 58 14.3 82 82 Calm 29.98 1015 10 16.0934 0 0
12:58 pm 12:58 Partly Cloudy 62 16.8 58 14.4 86 86 SSE 6 9 30.01 1016 10 16.0934 0 0
1:58 pm 13:58 Mostly Cloudy 65 18.1 59 15 82 82 SW 5 7 30.02 1017 10 16.0934 0 0
2:58 pm 14:58 Mostly Sunny 69 20.8 60 15.3 71 71 SSW 9 15 30.01 1016 10 16.0934 0 0
3:58 pm 15:58 Sunny 75 24.1 59 15.1 57 57 SSW 5 7 29.98 1015 10 16.0934 0 0
4:58 pm 16:58 Sunny 80 26.9 53 11.8 39 39 WNW 3 6 29.97 1015 10 16.0934 0 0
5:58 pm 17:58 Sunny 83 28.3 57 13.7 41 41 NW 6 9 29.96 1014 10 16.0934 0 0
6:58 pm 18:58 Sunny 84 29 56 13.5 39 39 NNW 6 9 29.94 1014 10 16.0934 0 0
7:58 pm 19:58 Sunny 87 30.5 57 14 37 37 N 6 9 29.93 1014 10 16.0934 0 0
9:58 pm 21:58 Sunny 89 31.7 56 13.3 33 33 E 5 7 29.91 1013 10 16.0934 0 0
10:58 pm 22:58 Sunny 89 31.9 53 11.4 28 28 E 5 7 29.91 1013 10 16.0934 0 0
11:58 pm 23:58 Sunny 87 30.7 56 13.1 34 34 ESE 6 9 29.91 1013 10 16.0934 0 0

Powered by AerisWeather